Tracking 29967 objects as of 6-Dec-2024
HD Live streaming from Space Station
objects crossing your sky now

FREGAT R/B

Track FREGAT R/B now!


NORAD ID: 45609
Int'l Code: 2020-031B
Perigee: 1,955.7 km
Apogee: 38,263.7 km
Inclination: 63.6 °
Period: 714.8 minutes
Semi major axis: 26480 km
RCS: Unknown
Launch date: May 22, 2020
Source: Commonwealth of Independent States (former USSR) (CIS)
Launch site: PLESETSK MISSILE AND SPACE COMPLEX (PKMTR)

Note: This is a ROCKET BODY
Your satellite tracking list
Your tracking list is empty




NASA's NSSDC Master Catalog

Two Line Element Set (TLE):
1 45609U 20031B   24340.02463499  .00000732  00000-0  00000-0 0  9992
2 45609  63.6401 131.5835 6855549 259.0986  23.0168  2.01468834 33397
Source of the keplerian elements: AFSPC